This is the latest recevied weather packets stored in our database for station/object W1SCW. If no packets are shown the sender has not sent any weather packets the latest 10 day(s).
| Time | Temp. | Humidity | Pressure | Rain* | Wind** | Luminosity | Snow |
|---|---|---|---|---|---|---|---|
| 1777427790 | 26.67° C | 82% | 1009.9 hPa | 0 mm | - | 0 W/m² | - |
| 1777427488 | 26.67° C | 82% | 1010 hPa | 0 mm | - | 0 W/m² | - |
| 1777427184 | 26.67° C | 82% | 1010 hPa | 0 mm | - | 0 W/m² | - |
| 1777426881 | 26.67° C | 81% | 1010.2 hPa | 0 mm | - | 0 W/m² | - |
| 1777426578 | 26.67° C | 81% | 1010.1 hPa | 0 mm | - | 0 W/m² | - |
| 1777426274 | 26.67° C | 80% | 1009.9 hPa | 0 mm | - | 0 W/m² | - |
| 1777425969 | 26.67° C | 81% | 1010.1 hPa | 0 mm | - | 0 W/m² | - |
| 1777425664 | 26.67° C | 80% | 1009.8 hPa | 0 mm | - | 0 W/m² | - |
| 1777425359 | 27.22° C | 80% | 1009.8 hPa | 0 mm | - | 0 W/m² | - |
| 1777425056 | 27.22° C | 80% | 1009.9 hPa | 0 mm | - | 0 W/m² | - |
| 1777424752 | 27.22° C | 80% | 1009.9 hPa | 0 mm | - | 1 W/m² | - |
| 1777424447 | 27.78° C | 80% | 1009.8 hPa | 0 mm | - | 2 W/m² | - |
| 1777424143 | 27.78° C | 79% | 1009.9 hPa | 0 mm | - | 4 W/m² | - |
| 1777423842 | 27.78° C | 79% | 1009.9 hPa | 0 mm | - | 7 W/m² | - |
| 1777423537 | 27.78° C | 79% | 1009.8 hPa | 0 mm | - | 11 W/m² | - |
| 1777423232 | 28.33° C | 78% | 1009.8 hPa | 0 mm | - | 15 W/m² | - |
| 1777422927 | 28.33° C | 78% | 1010 hPa | 0 mm | - | 18 W/m² | - |
| 1777422623 | 28.33° C | 77% | 1010.1 hPa | 0 mm | - | 25 W/m² | - |
| 1777422319 | 28.89° C | 77% | 1009.8 hPa | 0 mm | - | 42 W/m² | - |
| 1777422019 | 28.89° C | 76% | 1009.7 hPa | 0 mm | - | 58 W/m² | - |
| 1777421714 | 28.89° C | 76% | 1009.3 hPa | 0 mm | - | 63 W/m² | - |
| 1777421409 | 28.89° C | 76% | 1009.3 hPa | 0 mm | - | 82 W/m² | - |
| 1777421106 | 28.89° C | 75% | 1009.4 hPa | 0 mm | - | 84 W/m² | - |
| 1777420802 | 29.44° C | 74% | 1009.2 hPa | 0 mm | - | 82 W/m² | - |
| 1777420498 | 29.44° C | 73% | 1009 hPa | 0 mm | - | 88 W/m² | - |
* Rain latest hour (hover to see other rain measurements)
** Current wind speed in m/s (hover to see current wind gust speed)